Temp
64 65 65 64 64 64 64 65 65 65 64 65 64 64 64 64 64 66 57 64 67 72 71 66 66 67 65 60 60 58 45 42 47 50 50 59 56 60 60 55 58 58 56 60 62
64 64 64 64 64 64 64 64 64 64 64 64 64 64 64 63 64 58 68 71 71 71 64 61 61 63 57 57 57 50 43 48 53 51 50 57 56 56 55 55 54 55 60 62 62
64 64 64 64 64 64 64 64 64 64 64 64 64 64 63 62 59 58 71 72 72 71 66 64 64 60 54 57 54 52 47 54 56 57 58 56 57 59 54 52 54 55 57 59 59
64 64 64 64 64 64 64 64 64 64 64 64 64 64 63 61 51 61 72 73 73 69 65 63 61 53 51 51 59 49 57 58 58 57 56 54 57 55 54 57 60 61 60 59 59
64 63 63 63 63 63 63 63 64 64 64 63 64 63 60 56 55 68 71 70 68 65 63 59 56 54 49 53 55 50 53 58 59 57 56 58 54 53 55 59 60 62 61 59 58
63 63 62 62 63 63 63 63 64 63 63 63 64 62 57 52 66 68 66 66 65 62 60 59 55 56 52 53 51 53 54 55 57 57 57 55 52 53 56 59 61 60 58 58 59
63 62 62 62 62 62 63 63 63 63 63 64 64 63 58 54 66 66 66 63 64 62 58 60 58 54 55 51 56 55 49 51 53 55 54 54 49 51 56 59 59 59 59 59 59
63 62 61 61 61 62 62 63 63 62 63 64 64 59 51 65 63 66 65 63 65 65 62 62 61 56 54 56 54 48 46 41 52 54 52 51 42 54 56 57 54 57 58 58 58
62 62 61 61 61 61 61 63 64 63 63 64 59 57 51 66 62 64 63 59 60 62 61 67 59 53 54 46 39 44 35 41 47 54 51 48 43 51 56 56 53 53 55 56 57
62 61 60 60 60 60 61 63 64 63 64 65 66 53 58 55 60 62 62 61 57 57 57 55 52 47 46 41 30 37 37 43 40 49 50 45 44 50 54 55 53 51 52 54 55
61 60 60 60 60 60 58 58 53 55 54 52 53 53 56 60 62 59 61 58 57 53 46 50 42 39 45 47 47 44 41 39 43 51 46 44 44 49 52 51 50 48 49 52 54
61 60 60 60 60 60 58 51 49 51 44 55 55 54 58 57 51 56 60 52 51 45 48 44 39 48 51 49 46 43 39 37 45 49 46 44 45 48 51 50 53 52 49 53 53
61 60 59 59 59 58 53 51 57 55 41 50 54 53 53 55 50 52 55 51 47 45 45 40 46 52 50 46 44 41 39 39 40 45 45 42 37 44 50 51 53 55 54 55 55
60 60 59 59 57 55 51 57 57 55 37 42 49 51 55 54 49 57 56 50 48 44 44 43 49 48 44 44 45 36 45 44 43 34 27 40 25 39 50 49 51 54 52 51 54
60 60 59 59 52 53 55 57 55 49 28 46 49 58 55 49 51 52 56 51 44 46 44 42 44 43 42 45 48 41 46 43 40 31 28 32 24 35 43 45 47 51 52 50 54
59 59 58 57 55 55 56 54 51 38 27 39 50 49 48 49 51 51 50 52 51 45 45 43 47 45 45 48 47 47 43 41 34 30 20 31 30 31 38 41 46 49 49 51 52
59 59 57 60 54 56 56 50 40 34 49 44 45 49 48 47 49 48 46 43 40 34 33 41 42 46 49 41 45 42 34 22 21 18 23 35 29 34 40 44 46 47 50 50 50
58 56 55 58 57 56 54 45 34 42 41 48 47 46 44 48 46 46 42 38 44 41 33 27 28 41 46 42 38 36 35 23 16 18 23 34 28 36 42 46 50 50 50 50 50
55 51 50 53 55 54 47 36 38 42 48 48 45 39 40 45 44 42 40 41 45 46 35 31 31 43 45 45 43 35 30 38 28 27 19 27 34 41 43 45 46 47 50 49 47
50 49 48 54 54 50 42 39 42 49 49 47 39 44 39 42 41 41 41 44 44 45 44 38 29 41 42 43 42 38 40 27 27 16 17 24 26 27 36 40 44 45 46 47 47
49 45 48 53 52 43 38 39 44 51 52 46 43 42 42 41 43 42 44 47 47 44 44 39 35 33 38 35 35 33 31 33 31 26 16 16 25 38 39 40 41 43 46 45 46
48 42 48 51 39 40 36 41 46 47 50 47 45 44 42 43 40 40 39 47 50 46 41 44 36 27 33 41 42 38 35 34 23 23 23 22 28 41 42 43 44 45 47 47 48
44 41 48 47 35 34 38 40 43 43 44 43 41 45 46 42 36 40 42 45 47 44 43 41 33 22 28 33 36 33 36 37 35 30 28 17 27 42 41 41 44 44 46 48 48
42 35 40 42 40 38 36 37 38 44 43 45 43 45 41 38 42 38 40 45 45 45 47 46 33 29 26 29 33 29 33 36 34 26 30 31 34 36 41 42 41 43 46 46 47
43 37 41 33 35 38 40 39 37 37 42 43 39 40 38 34 35 35 38 40 45 47 44 42 27 31 34 36 36 34 34 35 33 34 28 33 33 38 42 42 45 45 47 46 47
41 39 41 38 39 36 37 35 38 41 39 37 36 39 38 35 37 36 38 36 36 38 37 39 27 32 29 34 33 30 34 35 36 37 37 37 35 43 43 46 42 45 46 47 47
47 46 42 37 36 35 34 37 38 42 42 45 42 39 37 39 43 44 44 42 40 37 36 34 32 28 25 30 29 23 31 34 36 38 38 32 39 39 39 40 39 40 41 42 44
MSLP
1021.92 1021.67 1021.42 1021.07 1020.74 1020.35 1019.92 1019.49 1019.07 1018.74 1018.50 1018.18 1017.92 1017.56 1017.23 1016.96 1016.32 1015.98 1016.60 1016.92 1016.42 1015.82 1015.36 1014.77 1014.37 1014.09 1013.84 1014.07 1013.97 1014.12 1015.19 1015.34 1014.66 1014.08 1013.91 1013.39 1013.22 1012.98 1012.89 1013.06 1013.22 1013.64 1014.24 1014.66 1015.45
1022.19 1021.92 1021.63 1021.33 1020.94 1020.50 1020.05 1019.57 1019.08 1018.67 1018.33 1018.07 1017.82 1017.56 1017.38 1017.20 1016.75 1016.84 1017.00 1016.47 1016.08 1015.75 1015.44 1015.08 1014.88 1014.40 1014.30 1014.22 1014.40 1014.70 1015.09 1014.63 1014.13 1014.07 1014.04 1013.68 1013.60 1013.41 1013.39 1013.47 1013.81 1014.46 1014.89 1015.22 1015.62
1022.33 1022.03 1021.72 1021.37 1020.97 1020.58 1020.16 1019.62 1019.11 1018.65 1018.29 1017.97 1017.73 1017.53 1017.43 1017.36 1017.20 1017.31 1016.84 1016.35 1015.87 1015.60 1015.63 1015.30 1014.84 1014.69 1014.35 1014.16 1014.55 1014.78 1015.03 1014.53 1014.34 1014.06 1014.08 1014.05 1013.91 1013.69 1013.59 1013.77 1013.92 1014.67 1015.22 1015.47 1015.74
1022.47 1022.12 1021.74 1021.35 1020.89 1020.41 1020.01 1019.52 1018.98 1018.58 1018.28 1018.03 1017.73 1017.54 1017.30 1017.35 1017.76 1017.23 1016.71 1016.31 1015.90 1015.45 1015.43 1015.33 1015.20 1014.97 1014.61 1014.34 1014.10 1014.57 1014.45 1014.38 1014.22 1014.42 1014.44 1014.52 1014.34 1014.18 1013.98 1013.83 1013.69 1013.98 1014.58 1015.18 1015.64
1022.54 1022.17 1021.83 1021.40 1020.86 1020.36 1019.85 1019.36 1018.75 1018.32 1018.15 1017.93 1017.70 1017.57 1017.31 1017.32 1017.63 1017.06 1016.68 1016.36 1015.88 1015.68 1015.59 1015.75 1015.65 1015.53 1015.32 1014.99 1014.63 1014.56 1014.66 1014.58 1014.38 1014.32 1014.46 1014.57 1014.57 1014.55 1013.95 1013.61 1013.77 1013.89 1014.71 1015.11 1015.53
1022.59 1022.30 1021.80 1021.22 1020.66 1020.05 1019.47 1019.03 1018.55 1018.20 1017.96 1017.77 1017.56 1017.35 1017.38 1017.54 1017.47 1017.24 1016.90 1016.56 1016.39 1016.11 1016.03 1016.01 1016.24 1015.97 1015.76 1015.36 1015.30 1015.20 1014.96 1014.71 1014.41 1014.36 1014.38 1014.56 1014.59 1014.52 1013.52 1013.13 1013.66 1013.98 1014.80 1015.16 1015.48
1022.49 1022.21 1021.77 1021.20 1020.57 1019.77 1018.95 1018.52 1018.19 1017.90 1017.82 1017.65 1017.50 1017.45 1017.53 1018.03 1017.47 1017.33 1017.03 1016.79 1016.54 1016.51 1016.54 1016.46 1016.41 1016.25 1015.93 1015.76 1015.44 1015.18 1015.29 1014.78 1014.20 1014.30 1014.62 1014.57 1014.69 1014.21 1013.56 1013.42 1013.88 1014.32 1014.77 1015.19 1015.57
1022.53 1022.24 1021.70 1021.13 1020.49 1019.74 1018.64 1018.10 1017.66 1017.39 1017.50 1017.45 1017.45 1017.23 1017.71 1017.42 1017.36 1017.34 1017.03 1016.84 1016.68 1016.51 1016.68 1016.66 1016.55 1016.52 1016.19 1015.92 1015.70 1015.79 1015.79 1015.48 1014.55 1014.48 1014.87 1015.06 1014.77 1014.00 1013.67 1013.90 1014.31 1014.48 1014.85 1015.21 1015.72
1022.46 1022.19 1021.77 1021.29 1020.66 1019.64 1018.43 1017.48 1017.02 1017.00 1017.30 1017.40 1017.63 1017.18 1017.64 1017.38 1017.47 1017.38 1017.32 1017.21 1016.83 1016.41 1016.32 1016.25 1016.32 1016.54 1016.53 1016.69 1016.67 1016.49 1016.50 1015.99 1015.15 1014.85 1015.13 1015.38 1014.98 1014.20 1014.02 1014.23 1014.57 1014.65 1014.84 1015.15 1015.42
1022.43 1022.21 1021.82 1021.28 1020.66 1019.69 1018.41 1017.33 1016.87 1016.77 1017.03 1017.16 1017.24 1017.79 1018.09 1018.15 1017.91 1017.62 1017.40 1017.31 1017.12 1016.79 1016.60 1016.61 1016.59 1016.55 1016.84 1017.27 1017.70 1017.42 1017.13 1016.51 1016.02 1015.37 1015.35 1015.53 1015.11 1014.55 1014.17 1014.21 1014.23 1014.33 1014.52 1014.93 1015.15
1022.35 1022.20 1021.89 1021.40 1021.09 1020.01 1019.06 1017.84 1018.28 1018.06 1018.45 1019.03 1019.05 1018.88 1018.77 1018.60 1017.99 1017.74 1017.61 1017.49 1017.08 1016.95 1016.94 1016.79 1017.26 1017.11 1016.86 1016.81 1016.97 1017.20 1017.13 1017.04 1016.08 1015.59 1015.77 1015.66 1015.24 1014.68 1014.11 1014.22 1014.16 1014.30 1014.40 1014.57 1014.98
1022.14 1022.11 1021.79 1021.37 1021.06 1020.65 1020.16 1020.90 1022.03 1022.29 1020.77 1019.48 1019.23 1019.11 1018.84 1018.82 1018.51 1018.15 1017.93 1018.10 1017.66 1017.55 1017.21 1017.44 1017.11 1016.67 1016.68 1016.93 1016.96 1017.04 1017.19 1016.96 1016.26 1015.70 1015.93 1015.63 1014.90 1014.24 1013.64 1013.22 1013.16 1013.34 1013.83 1014.07 1014.47
1021.86 1021.82 1021.50 1021.12 1020.75 1020.70 1021.37 1022.19 1022.31 1022.43 1021.83 1020.12 1019.75 1019.58 1019.33 1019.07 1018.65 1018.45 1018.30 1018.17 1018.08 1017.94 1017.66 1017.83 1017.33 1017.05 1016.98 1016.90 1017.14 1017.28 1017.46 1017.32 1017.25 1016.72 1016.37 1016.04 1014.85 1013.72 1012.52 1012.22 1012.29 1012.47 1012.52 1013.19 1013.74
1021.72 1021.81 1021.70 1021.06 1021.16 1021.22 1021.58 1021.74 1021.55 1021.73 1022.18 1020.72 1019.60 1019.42 1019.39 1019.36 1019.23 1018.63 1018.52 1018.79 1018.23 1017.97 1017.73 1017.70 1017.26 1017.14 1017.25 1017.35 1017.36 1017.70 1017.60 1017.77 1017.87 1017.92 1018.11 1017.45 1016.59 1014.57 1012.84 1012.07 1011.66 1011.53 1012.23 1012.46 1013.39
1021.22 1021.45 1021.61 1021.06 1021.77 1021.67 1021.86 1021.73 1021.76 1021.75 1021.26 1020.06 1019.39 1019.23 1019.09 1019.37 1018.73 1018.55 1018.91 1018.82 1018.66 1018.49 1018.53 1017.57 1017.43 1017.32 1017.29 1017.03 1017.08 1017.62 1017.80 1018.22 1018.71 1019.37 1019.29 1018.25 1018.09 1014.45 1013.10 1012.55 1012.02 1011.53 1011.73 1012.19 1012.77
1021.11 1021.21 1021.52 1021.54 1021.75 1021.59 1021.58 1021.73 1021.90 1021.75 1020.34 1019.41 1018.95 1018.85 1019.00 1018.76 1018.70 1018.65 1018.50 1018.80 1018.77 1019.07 1018.73 1018.46 1017.93 1017.86 1017.53 1017.32 1017.28 1017.70 1018.30 1018.74 1019.32 1020.11 1020.41 1018.75 1018.08 1015.51 1014.03 1013.13 1012.60 1012.37 1012.52 1012.60 1012.84
1020.73 1020.97 1021.48 1021.26 1021.86 1021.55 1021.44 1021.62 1022.03 1021.41 1019.69 1019.29 1018.93 1018.71 1018.80 1018.45 1018.23 1018.37 1018.50 1018.68 1019.00 1019.01 1019.34 1018.82 1018.26 1017.94 1018.24 1018.19 1018.08 1018.21 1019.21 1020.30 1021.16 1021.47 1020.47 1018.97 1018.46 1015.35 1014.31 1013.81 1013.21 1013.03 1013.12 1013.25 1013.39
1020.56 1021.13 1021.60 1021.32 1021.53 1021.74 1021.75 1021.93 1021.41 1020.34 1019.51 1018.85 1018.72 1018.67 1018.72 1018.23 1018.41 1018.33 1018.36 1018.41 1018.19 1019.14 1019.67 1019.62 1018.45 1018.09 1017.97 1018.19 1018.79 1019.27 1019.48 1020.79 1021.64 1021.55 1020.65 1019.18 1017.82 1015.72 1014.76 1014.14 1014.11 1013.75 1013.53 1013.52 1013.76
1020.73 1021.57 1021.87 1021.78 1021.64 1021.66 1022.03 1021.83 1020.53 1019.88 1019.03 1018.78 1018.77 1018.77 1018.71 1018.41 1018.52 1018.69 1018.44 1018.10 1017.70 1017.91 1018.87 1019.38 1018.97 1018.80 1018.81 1018.36 1018.78 1019.28 1019.78 1020.19 1021.12 1021.57 1021.21 1019.17 1017.23 1015.89 1015.49 1014.81 1014.55 1014.49 1014.33 1014.43 1014.52
1021.05 1021.57 1021.74 1021.52 1021.77 1021.88 1022.02 1020.67 1019.89 1019.36 1018.92 1018.88 1019.18 1019.21 1019.04 1018.56 1018.52 1018.58 1018.38 1018.04 1017.88 1018.19 1018.23 1018.88 1019.11 1018.86 1019.22 1019.14 1019.02 1019.34 1020.15 1020.71 1021.56 1022.43 1021.71 1019.37 1017.58 1016.35 1015.92 1015.64 1015.03 1014.92 1015.08 1015.10 1015.25
1021.29 1021.62 1021.91 1021.87 1021.79 1021.94 1021.43 1020.59 1019.47 1018.69 1018.77 1019.18 1019.00 1019.25 1019.03 1019.09 1018.72 1018.38 1017.92 1018.04 1017.83 1018.46 1018.65 1019.03 1019.48 1019.79 1019.66 1019.47 1019.37 1019.75 1020.15 1020.75 1021.46 1022.25 1021.91 1020.73 1017.82 1016.26 1015.80 1015.71 1015.60 1015.34 1015.57 1016.01 1016.09
1020.94 1021.49 1021.95 1022.13 1022.50 1021.62 1021.28 1020.46 1019.83 1019.29 1019.10 1018.95 1019.39 1019.02 1019.21 1018.97 1019.33 1018.97 1018.13 1017.70 1017.61 1018.53 1019.03 1019.19 1019.56 1019.91 1019.69 1018.68 1018.47 1018.89 1019.44 1020.27 1021.43 1021.59 1021.44 1020.48 1017.60 1016.43 1015.74 1015.56 1015.63 1015.60 1015.86 1016.19 1016.54
1020.71 1021.74 1022.16 1022.01 1021.78 1021.65 1021.38 1020.58 1019.94 1019.87 1019.54 1019.73 1019.61 1019.38 1019.32 1019.58 1019.59 1019.06 1018.57 1018.24 1018.37 1018.82 1019.16 1019.64 1019.88 1020.48 1019.88 1019.40 1019.14 1018.98 1018.96 1019.65 1020.02 1020.46 1019.97 1020.23 1017.54 1016.43 1015.91 1015.72 1015.80 1015.89 1016.05 1016.34 1016.66
1021.02 1021.68 1022.03 1021.69 1021.21 1021.07 1021.13 1020.82 1020.40 1019.89 1019.73 1019.45 1019.57 1019.63 1019.62 1019.46 1019.47 1018.98 1019.08 1018.62 1018.77 1019.05 1019.71 1019.83 1020.41 1020.54 1019.82 1019.54 1019.55 1019.46 1019.08 1019.14 1019.80 1019.43 1018.71 1017.69 1016.86 1016.55 1016.20 1016.19 1016.17 1016.16 1016.21 1016.41 1016.73
1020.40 1020.25 1020.34 1021.15 1020.71 1020.58 1020.56 1020.47 1020.28 1020.21 1020.16 1019.80 1019.61 1019.77 1019.86 1019.94 1019.65 1019.29 1019.46 1019.41 1019.21 1019.25 1019.87 1020.38 1020.45 1020.68 1019.67 1019.46 1019.46 1018.62 1018.56 1018.69 1018.71 1018.21 1017.84 1016.35 1016.41 1016.18 1015.85 1015.97 1015.85 1016.15 1016.52 1016.61 1016.82
1019.32 1019.82 1020.28 1020.09 1020.21 1020.48 1020.04 1019.54 1019.53 1019.67 1020.09 1020.24 1019.74 1019.53 1019.60 1019.64 1019.52 1019.33 1019.59 1019.84 1019.29 1019.63 1020.07 1020.47 1020.55 1020.49 1019.64 1019.45 1019.22 1018.29 1017.89 1017.49 1017.35 1016.87 1016.24 1016.25 1015.51 1015.77 1015.77 1015.93 1015.85 1016.08 1016.44 1016.55 1016.95
1018.07 1018.14 1018.56 1019.29 1019.71 1020.16 1019.18 1018.96 1019.24 1019.17 1019.01 1019.22 1019.48 1019.80 1019.58 1019.46 1019.47 1019.26 1019.43 1019.80 1019.88 1020.01 1020.24 1020.62 1020.74 1020.84 1019.72 1019.22 1019.09 1017.82 1016.38 1015.97 1015.72 1015.75 1015.77 1015.68 1015.15 1015.91 1016.21 1016.50 1016.91 1017.28 1017.58 1017.47 1016.96
Wind_Speed
16 17 17 17 17 17 18 18 18 17 17 16 15 14 15 16 13 3 6 5 8 15 17 8 3 5 1 2 1 3 5 2 4 5 1 5 4 3 1 0 3 3 2 7 9
16 17 17 18 18 19 19 19 19 17 16 15 14 13 14 14 1 7 5 10 10 11 6 7 6 8 3 1 2 4 4 3 0 1 2 5 4 3 1 4 1 5 6 9 8
15 16 17 18 19 19 19 19 19 18 16 14 12 12 11 7 1 3 12 11 9 8 5 4 5 2 1 2 0 1 3 2 2 3 3 3 7 4 1 4 3 8 10 9 7
15 16 17 18 19 20 20 20 19 18 16 14 12 11 10 1 1 3 12 12 13 8 4 4 4 2 2 2 3 1 3 3 1 2 3 4 5 6 3 7 4 8 13 8 9
15 16 17 18 19 20 20 19 19 17 13 12 11 10 4 3 1 4 10 10 6 7 4 5 5 4 2 4 1 3 2 4 5 3 3 4 5 5 8 6 3 9 10 10 8
14 16 16 18 19 19 18 17 18 15 10 9 10 11 1 2 4 6 9 4 6 5 5 6 3 3 4 3 2 2 4 7 6 5 3 4 4 3 5 5 6 10 8 8 9
12 14 17 19 20 21 21 17 16 11 8 9 8 3 5 2 4 6 8 4 2 3 3 3 3 3 3 4 3 3 5 7 5 6 3 3 6 10 6 5 7 8 8 8 8
11 13 16 18 19 22 24 20 13 8 6 9 7 0 3 1 2 5 7 3 7 2 2 4 4 3 1 4 4 2 2 5 5 6 2 4 8 7 5 7 7 8 7 7 7
9 12 15 17 19 21 23 22 10 5 4 8 3 0 2 0 2 3 3 3 7 3 2 4 0 0 3 3 6 5 2 4 6 4 2 4 6 4 5 6 7 8 8 9 8
8 10 12 15 17 21 25 21 5 5 1 2 3 3 3 4 4 5 3 4 3 5 4 2 2 2 3 4 2 4 4 5 4 3 4 5 10 10 9 8 11 10 9 9 9
8 9 12 15 19 21 13 6 9 6 11 1 5 3 2 8 2 1 2 6 2 0 2 1 4 3 3 3 3 3 4 5 5 6 4 7 8 11 9 7 9 9 9 11 12
6 7 10 14 16 18 6 7 2 1 8 4 2 3 3 2 3 3 8 4 4 2 1 5 3 3 2 1 0 1 4 7 8 2 3 7 14 11 10 8 13 13 10 13 10
7 5 7 12 12 4 5 3 2 1 2 4 2 3 3 3 2 4 5 2 1 3 2 4 3 1 1 2 3 3 4 4 6 5 4 6 8 6 6 7 8 12 9 13 18
7 4 6 15 3 3 3 5 3 3 5 7 2 1 1 3 4 1 1 1 2 2 3 5 2 1 1 4 4 4 2 3 5 5 2 5 8 8 10 11 10 13 10 11 14
7 5 2 6 2 2 1 2 2 2 5 4 1 1 1 1 3 3 1 1 2 2 4 7 3 3 3 5 5 6 2 3 2 3 5 4 2 9 6 4 7 5 9 9 15
8 7 5 2 1 1 1 2 1 7 6 2 2 1 1 3 3 1 1 1 2 4 3 7 1 2 4 0 2 1 3 3 3 3 3 6 6 6 3 3 4 6 9 1 13
7 8 6 2 2 2 1 2 4 3 3 1 1 1 3 3 3 4 1 4 0 5 4 6 3 1 1 2 4 3 4 4 6 4 6 4 2 9 3 3 2 4 6 7 6
2 13 1 1 4 2 2 2 4 4 6 1 1 2 4 1 1 2 1 3 4 4 2 1 8 6 4 4 2 3 6 6 6 3 5 6 6 6 1 4 5 6 5 6 6
13 2 2 3 3 2 3 3 6 6 3 4 2 1 2 1 2 2 6 6 5 7 7 2 5 2 0 3 3 1 3 3 0 2 3 4 6 1 4 5 5 7 7 7 5
3 2 2 4 4 3 2 5 5 4 4 1 6 5 7 4 4 5 4 2 3 2 2 2 5 3 1 2 3 2 1 4 3 1 5 6 4 5 4 6 5 5 5 6 6
2 2 1 2 2 2 7 6 5 5 6 6 6 6 7 3 7 5 6 3 2 2 3 2 5 3 3 6 7 2 3 2 3 4 5 3 6 5 4 1 3 3 4 5 5
2 3 2 1 2 2 3 5 2 3 0 3 1 5 6 6 2 4 6 7 6 5 4 5 4 4 11 6 5 5 8 6 5 5 4 3 8 1 5 2 3 5 5 6 6
3 3 1 0 4 3 2 3 2 3 5 4 6 7 6 4 5 7 3 3 4 4 3 1 2 3 8 4 3 3 5 4 2 2 13 3 7 3 3 2 3 6 6 5 6
3 2 2 3 1 3 4 4 4 5 3 5 2 2 4 6 6 4 4 5 7 7 7 6 3 7 8 3 2 4 5 5 7 6 11 17 16 4 5 3 3 3 4 6 6
3 4 5 6 6 7 5 2 4 5 5 2 3 9 6 5 4 5 6 6 4 8 5 6 7 8 15 12 8 16 13 10 14 12 12 12 12 6 6 8 5 1 3 4 7
5 4 2 2 7 12 10 6 18 10 7 5 8 9 9 8 7 3 2 2 5 3 8 5 5 4 11 8 10 20 16 17 20 20 19 17 19 7 3 7 8 9 7 6 8
2 1 5 5 6 6 7 10 7 8 7 13 10 9 9 13 13 9 5 6 4 3 8 5 4 4 8 4 6 11 11 19 16 15 16 18 16 6 5 7 4 3 4 6 6
Wind_Direction
6 3 360 356 352 349 345 341 339 339 337 336 337 334 333 332 315 17 48 310 319 324 325 295 299 316 15 299 77 72 65 328 320 17 31 350 36 320 194 65 61 52 111 133 137
5 3 358 353 349 346 342 338 335 334 332 334 336 337 334 338 320 60 326 331 329 325 333 8 345 343 1 133 343 83 105 218 346 81 13 340 27 314 335 343 176 72 80 127 125
5 1 356 352 348 344 341 337 333 331 328 329 330 333 334 337 333 354 340 339 333 324 292 300 272 256 328 119 293 346 193 313 18 110 49 317 333 298 93 299 216 183 165 157 148
1 358 355 349 345 342 339 337 333 329 326 326 328 330 329 263 336 321 342 334 328 324 304 314 319 291 243 178 165 76 295 288 276 80 29 314 316 329 251 233 162 151 166 159 164
357 355 351 346 341 337 336 334 333 330 325 319 325 329 350 76 61 334 326 338 344 343 31 358 10 359 350 334 21 164 299 340 328 181 217 263 272 242 275 253 243 126 158 164 171
353 349 346 343 338 333 332 332 334 330 323 314 321 328 350 124 301 341 328 341 353 22 26 34 1 329 305 298 26 280 301 284 270 229 230 209 259 16 268 217 163 131 166 177 166
349 346 344 341 337 333 328 330 328 320 306 300 321 320 47 83 335 329 347 301 334 33 14 26 340 34 327 327 309 294 314 313 248 206 222 106 300 236 204 133 157 155 175 177 168
342 341 342 338 335 332 326 329 317 281 281 294 306 282 94 243 326 350 347 338 353 34 2 309 325 293 271 310 328 284 45 348 303 135 196 100 275 311 196 154 187 182 195 165 170
331 339 339 334 331 330 323 326 323 262 265 293 299 108 92 253 14 330 355 323 298 262 253 260 15 329 343 35 7 351 264 262 311 204 117 177 252 272 179 177 208 205 190 168 160
324 328 327 330 331 332 326 320 356 350 168 246 278 35 29 342 318 325 307 314 315 331 345 352 28 62 18 75 247 297 309 308 273 277 200 240 255 266 256 214 215 203 187 174 168
312 327 329 335 335 332 339 3 13 353 45 40 314 258 354 311 286 293 329 327 238 178 86 271 61 231 201 176 203 257 256 264 268 259 218 241 258 268 266 232 222 218 195 185 176
291 314 330 331 332 328 355 61 28 267 316 316 271 270 245 40 318 352 3 356 352 318 311 12 230 179 162 195 343 262 284 277 284 186 199 270 272 257 248 225 209 206 195 192 166
271 288 310 308 320 38 79 79 332 308 323 327 3 332 322 17 333 312 20 313 8 316 316 209 317 164 22 328 277 269 228 276 256 329 305 322 290 286 275 242 212 220 196 182 173
271 265 320 318 45 327 61 166 169 121 39 297 43 9 340 317 333 349 23 70 288 259 305 236 220 201 304 268 179 287 330 318 320 41 221 67 286 302 287 294 214 203 197 174 179
249 210 241 47 253 48 208 115 124 82 20 251 288 251 281 8 253 189 345 10 256 281 75 260 199 225 222 227 174 227 330 295 323 322 31 282 74 270 298 333 346 223 202 175 170
240 204 175 120 145 102 71 349 37 40 262 307 185 233 257 195 244 129 214 156 248 322 250 250 309 210 231 10 52 92 316 321 55 85 355 246 162 284 324 309 352 17 26 161 165
247 181 166 148 212 173 18 24 33 163 336 240 200 186 301 246 235 170 355 332 203 4 351 318 234 122 354 337 2 71 65 332 348 358 240 306 104 250 279 330 32 4 358 10 167
308 128 113 84 146 136 43 77 198 228 251 219 150 300 257 318 295 174 105 295 280 161 294 205 322 179 168 200 237 203 152 154 239 234 272 322 255 287 354 36 16 9 354 21 77
116 79 126 205 169 110 115 183 208 201 223 189 45 302 294 234 240 309 209 221 224 174 174 275 272 12 74 9 110 195 187 206 73 289 31 239 294 33 43 23 24 8 11 5 39
93 157 198 154 168 100 151 228 213 231 120 128 176 187 223 217 188 189 213 249 169 58 93 268 306 206 257 27 293 169 279 43 10 287 269 280 241 237 351 349 7 36 17 20 78
119 200 42 137 87 103 232 218 215 230 168 193 209 234 223 242 224 205 216 257 162 125 83 117 158 281 108 204 196 104 260 199 147 162 196 284 260 205 173 345 359 95 71 72 76
157 220 119 10 175 156 192 195 238 214 188 165 39 248 237 188 274 257 239 200 140 151 178 215 197 239 231 234 195 177 192 164 139 261 236 183 272 184 149 140 136 136 121 115 110
170 124 116 325 205 194 252 242 207 198 192 201 228 219 191 228 234 219 250 167 110 142 173 32 251 339 318 4 340 201 192 199 219 144 237 170 263 219 172 134 131 146 159 155 146
138 172 164 207 143 171 162 226 232 209 233 192 251 82 168 214 243 275 252 201 181 173 135 62 280 206 227 180 111 230 225 206 216 226 256 234 259 223 242 179 101 117 160 178 171
203 221 181 198 204 206 176 203 185 206 235 180 181 220 187 235 214 223 232 276 213 178 173 169 234 233 260 266 272 276 267 246 236 242 235 262 241 225 219 181 141 237 267 200 179
169 173 170 177 168 195 197 191 239 240 172 236 233 210 219 218 204 210 216 254 226 198 168 178 256 234 274 242 249 265 262 254 248 247 248 258 258 228 255 178 180 188 199 208 205
183 317 139 200 167 182 199 203 221 227 220 243 238 244 228 237 239 258 202 200 213 228 197 204 208 192 257 208 257 277 246 237 244 250 243 246 255 178 182 130 95 40 350 309 310